Benson, MN

4:19 PM CST on December 15, 2017 (GMT -0600)
Benson Municipal

Weather History for KBBB - October, 2013

Change the Weather History Date:

Sunday, October 27, 2013

  Actual Average Record
Temperature  
Mean Temperature 40 °F -  
Max Temperature 55 °F 56 °F 81 °F (1983)
Min Temperature 24 °F 34 °F 3 °F (1999)
Degree Days  
Heating Degree Days 26    
Moisture  
Dew Point 28 °F    
Average Humidity 70    
Maximum Humidity 93    
Minimum Humidity 41    
Precipitation  
Precipitation 0.00 in - - ()
Sea Level Pressure  
Sea Level Pressure 29.92 in    
Wind  
Wind Speed 8 mph (NE)    
Max Wind Speed 17 mph    
Max Gust Speed 23 mph    
Visibility 10 miles    
Events      
Averages and records for this station are not official NWS values.
T = Trace of Precipitation, MM = Missing Value Source: NWS Daily Summary

Daily Weather History Graph

Daily Weather History Graph

Search for Another Location

Airport or City:

Trip Planner

Search our weather history database for the weather conditions in past years. The results will help you decide how hot, cold, wet, or windy it might be!

Date:

Astronomy

Oct. 27, 2013 Rise Set
Actual Time 7:55 AM CDT 6:16 PM CDT
Civil Twilight 7:24 AM CDT 6:47 PM CDT
Nautical Twilight 6:50 AM CDT 7:22 PM CDT
Astronomical Twilight 6:15 AM CDT 7:56 PM CDT
Moon 12:34 AM CDT (10/27) 2:44 PM CDT (10/27)
Length of Visible Light 11h 22m
Length of Day
10h 21m
Last Quarter, 43% of the Moon is Illuminated
Oct 27
Last Quarter
Nov 3
New
Nov 9
First Quarter
Nov 17
Full
Nov 25
Last Quarter

Hourly Weather History & Observations

Time (CDT) Temp. Windchill Dew Point Humidity Pressure Visibility Wind Dir Wind Speed Gust Speed Precip Events Conditions
12:13 AM 24.8 °F 16.9 °F 21.2 °F 86% 30.00 in 10.0 mi SSW 6.9 mph - N/A   Clear
12:32 AM 26.6 °F 19.1 °F 23.0 °F 86% 29.98 in 10.0 mi SSW 6.9 mph - N/A   Clear
12:49 AM 24.8 °F 16.1 °F 23.0 °F 93% 29.97 in 10.0 mi SSW 8.1 mph - N/A   Clear
1:13 AM 26.6 °F 19.1 °F 23.0 °F 86% 29.96 in 10.0 mi SSW 6.9 mph - N/A   Clear
1:32 AM 26.6 °F 21.2 °F 23.0 °F 86% 29.96 in 10.0 mi SSW 4.6 mph - N/A   Clear
1:52 AM 24.8 °F 17.9 °F 21.2 °F 86% 29.95 in 10.0 mi SSW 5.8 mph - N/A   Clear
2:13 AM 24.8 °F 17.9 °F 23.0 °F 93% 29.94 in 10.0 mi SSW 5.8 mph - N/A   Clear
2:32 AM 24.8 °F 19.1 °F 21.2 °F 86% 29.93 in 10.0 mi SSW 4.6 mph - N/A   Clear
2:52 AM 24.8 °F 16.9 °F 21.2 °F 86% 29.92 in 10.0 mi SSW 6.9 mph - N/A   Clear
3:13 AM 26.6 °F 19.1 °F 23.0 °F 86% 29.92 in 10.0 mi SSW 6.9 mph - N/A   Clear
3:32 AM 26.6 °F 18.2 °F 23.0 °F 86% 29.90 in 10.0 mi SSW 8.1 mph - N/A   Clear
3:52 AM 26.6 °F 19.1 °F 23.0 °F 86% 29.89 in 10.0 mi SSW 6.9 mph - N/A   Clear
4:13 AM 26.6 °F 18.2 °F 23.0 °F 86% 29.88 in 10.0 mi SSW 8.1 mph - N/A   Clear
4:32 AM 26.6 °F 19.1 °F 23.0 °F 86% 29.88 in 10.0 mi SSW 6.9 mph - N/A   Clear
4:52 AM 26.6 °F 17.5 °F 24.8 °F 93% 29.86 in 10.0 mi SSW 9.2 mph - N/A   Clear
5:13 AM 26.6 °F 17.5 °F 24.8 °F 93% 29.85 in 10.0 mi SSW 9.2 mph - N/A   Clear
5:32 AM 28.4 °F 19.7 °F 24.8 °F 86% 29.84 in 10.0 mi SSW 9.2 mph - N/A   Clear
5:52 AM 28.4 °F 20.4 °F 24.8 °F 86% 29.84 in 10.0 mi South 8.1 mph - N/A   Clear
6:13 AM 28.4 °F 21.2 °F 24.8 °F 86% 29.83 in 10.0 mi South 6.9 mph - N/A   Clear
6:32 AM 28.4 °F 20.4 °F 24.8 °F 86% 29.82 in 10.0 mi South 8.1 mph - N/A   Clear
6:52 AM 28.4 °F 20.4 °F 24.8 °F 86% 29.81 in 10.0 mi South 8.1 mph - N/A   Clear
7:13 AM 28.4 °F 19.7 °F 26.6 °F 93% 29.79 in 10.0 mi South 9.2 mph - N/A   Clear
7:32 AM 28.4 °F 20.4 °F 26.6 °F 93% 29.79 in 10.0 mi South 8.1 mph - N/A   Clear
7:52 AM 28.4 °F 21.2 °F 24.8 °F 86% 29.79 in 10.0 mi SSW 6.9 mph - N/A   Clear
8:12 AM 28.4 °F 21.2 °F 24.8 °F 86% 29.79 in 10.0 mi South 6.9 mph - N/A   Clear
8:33 AM 28.4 °F - 26.6 °F 93% 29.80 in 10.0 mi Calm Calm - N/A   Clear
8:53 AM 30.2 °F - 26.6 °F 86% 29.81 in 10.0 mi Calm Calm - N/A   Clear
9:12 AM 33.8 °F 29.6 °F 28.4 °F 81% 29.81 in 10.0 mi SSW 4.6 mph - N/A   Clear
9:33 AM 33.8 °F 29.6 °F 28.4 °F 81% 29.81 in 10.0 mi SW 4.6 mph - N/A   Clear
9:53 AM 35.6 °F - 30.2 °F 81% 29.81 in 10.0 mi Calm Calm - N/A   Clear
10:12 AM 39.2 °F 37.0 °F 30.2 °F 70% 29.82 in 10.0 mi West 3.5 mph - N/A   Clear
10:33 AM 42.8 °F - 32.0 °F 66% 29.82 in 10.0 mi Calm Calm - N/A   Clear
10:53 AM 44.6 °F 41.4 °F 32.0 °F 61% 29.82 in 10.0 mi NW 5.8 mph - N/A   Clear
11:12 AM 46.4 °F 42.9 °F 33.8 °F 62% 29.82 in 10.0 mi NNW 6.9 mph - N/A   Clear
11:33 AM 48.2 °F - 32.0 °F 54% 29.82 in 10.0 mi North 10.4 mph - N/A   Clear
11:53 AM 48.2 °F - 33.8 °F 58% 29.83 in 10.0 mi North 8.1 mph - N/A   Clear
12:12 PM 51.8 °F - 33.8 °F 50% 29.83 in 10.0 mi North 12.7 mph - N/A   Clear
12:33 PM 51.8 °F - 33.8 °F 50% 29.83 in 10.0 mi North 11.5 mph 17.3 mph N/A   Clear
12:52 PM 51.8 °F - 33.8 °F 50% 29.83 in 10.0 mi NNE 11.5 mph 17.3 mph N/A   Clear
1:13 PM 53.6 °F - 33.8 °F 47% 29.83 in 10.0 mi NNE 12.7 mph 18.4 mph N/A   Clear
1:33 PM 53.6 °F - 33.8 °F 47% 29.83 in 10.0 mi North 11.5 mph - N/A   Clear
1:52 PM 55.4 °F - 33.8 °F 44% 29.84 in 10.0 mi NNE 13.8 mph 18.4 mph N/A   Clear
2:13 PM 55.4 °F - 33.8 °F 44% 29.84 in 10.0 mi NNE 16.1 mph 20.7 mph N/A   Clear
2:33 PM 55.4 °F - 33.8 °F 44% 29.84 in 10.0 mi NNE 15.0 mph 23.0 mph N/A   Clear
2:52 PM 55.4 °F - 33.8 °F 44% 29.85 in 10.0 mi North 13.8 mph 21.9 mph N/A   Clear
3:13 PM 55.4 °F - 33.8 °F 44% 29.86 in 10.0 mi NNE 11.5 mph 20.7 mph N/A   Clear
3:33 PM 55.4 °F - 33.8 °F 44% 29.86 in 10.0 mi NNE 12.7 mph 18.4 mph N/A   Clear
3:52 PM 55.4 °F - 32.0 °F 41% 29.87 in 10.0 mi NNE 16.1 mph 20.7 mph N/A   Clear
4:13 PM 55.4 °F - 32.0 °F 41% 29.89 in 10.0 mi NNE 13.8 mph 19.6 mph N/A   Clear
4:33 PM 55.4 °F - 32.0 °F 41% 29.90 in 10.0 mi NNE 16.1 mph 19.6 mph N/A   Clear
4:52 PM 53.6 °F - 32.0 °F 44% 29.91 in 10.0 mi NNE 16.1 mph 23.0 mph N/A   Clear
5:13 PM 51.8 °F - 30.2 °F 44% 29.93 in 10.0 mi NE 17.3 mph 23.0 mph N/A   Clear
5:32 PM 50.0 °F - 30.2 °F 47% 29.94 in 10.0 mi NE 12.7 mph 21.9 mph N/A   Clear
5:52 PM 48.2 °F - 30.2 °F 50% 29.95 in 10.0 mi NNE 11.5 mph 17.3 mph N/A   Clear
6:13 PM 46.4 °F 41.9 °F 30.2 °F 53% 29.96 in 10.0 mi NNE 9.2 mph - N/A   Clear
6:32 PM 44.6 °F 40.2 °F 30.2 °F 57% 29.98 in 10.0 mi NNE 8.1 mph - N/A   Clear
6:52 PM 42.8 °F 37.5 °F 30.2 °F 61% 29.99 in 10.0 mi NNE 9.2 mph - N/A   Clear
7:13 PM 42.8 °F 38.6 °F 30.2 °F 61% 30.01 in 10.0 mi NNE 6.9 mph - N/A   Clear
7:32 PM 41.0 °F 34.7 °F 30.2 °F 65% 30.03 in 10.0 mi NE 10.4 mph - N/A   Clear
7:52 PM 42.8 °F 37.0 °F 30.2 °F 61% 30.04 in 10.0 mi ENE 10.4 mph 19.6 mph N/A   Clear
8:13 PM 41.0 °F 34.3 °F 28.4 °F 61% 30.06 in 10.0 mi ENE 11.5 mph 19.6 mph N/A   Clear
8:32 PM 39.2 °F 32.0 °F 28.4 °F 65% 30.07 in 10.0 mi ENE 11.5 mph 17.3 mph N/A   Clear
8:52 PM 39.2 °F 33.0 °F 28.4 °F 65% 30.08 in 10.0 mi ENE 9.2 mph - N/A   Clear
9:12 PM 39.2 °F 34.2 °F 28.4 °F 65% 30.10 in 10.0 mi ENE 6.9 mph - N/A   Clear
9:32 PM 37.4 °F 31.4 °F 28.4 °F 70% 30.11 in 10.0 mi NE 8.1 mph - N/A   Clear
9:53 PM 35.6 °F 29.9 °F 28.4 °F 75% 30.12 in 10.0 mi NE 6.9 mph - N/A   Clear
10:12 PM 33.8 °F 27.7 °F 28.4 °F 81% 30.13 in 10.0 mi NE 6.9 mph - N/A   Clear
10:32 PM 33.8 °F 28.6 °F 26.6 °F 75% 30.14 in 10.0 mi NE 5.8 mph - N/A   Clear
10:53 PM 32.0 °F 26.4 °F 26.6 °F 80% 30.15 in 10.0 mi NE 5.8 mph - N/A   Clear
11:12 PM 32.0 °F 25.6 °F 26.6 °F 80% 30.16 in 10.0 mi NE 6.9 mph - N/A   Clear
11:32 PM 28.4 °F 24.6 °F 24.8 °F 86% 30.17 in 10.0 mi NNE 3.5 mph - N/A   Clear
11:53 PM 26.6 °F 20.0 °F 24.8 °F 93% 30.17 in 10.0 mi NNE 5.8 mph - N/A   Clear